EHI
4 2 0 0 0 0 0 0 0 0 0 0 0 0 0 0 0 0 0 0 0 0 0 0 0 0 0 0 0 0 0 0 0 0 0 0 0 0 0 0 0 0 0
7 3 0 0 0 0 0 0 0 0 0 0 0 0 0 0 0 0 0 0 0 0 0 0 0 0 0 0 0 0 0 0 0 0 0 0 0 0 0 0 0 0 0
8 3 0 0 0 0 0 0 0 0 0 0 0 0 0 0 0 0 0 0 0 0 0 0 0 0 0 0 0 0 0 0 0 0 0 0 0 0 1 0 0 1 1
5 2 0 0 0 0 0 0 0 0 0 0 0 0 0 0 0 0 0 0 0 0 0 0 0 0 0 0 0 0 0 0 0 0 0 0 0 0 0 0 1 1 1
3 3 2 1 0 0 0 0 0 0 0 0 0 0 0 0 0 0 0 0 0 0 0 0 0 0 0 0 0 0 0 0 0 0 0 0 0 0 0 0 1 2 2
8 7 5 2 1 0 0 0 0 0 0 0 0 0 0 0 0 0 0 0 0 0 0 0 0 0 0 0 0 0 0 0 0 0 0 0 0 1 1 0 1 2 3
12 11 7 3 1 0 0 0 0 0 0 0 0 0 0 0 0 0 0 0 0 0 0 0 0 0 0 0 0 0 0 0 0 0 0 0 0 1 1 0 0 1 2
15 12 7 3 1 0 0 0 0 0 0 0 0 0 0 0 0 0 0 0 0 0 0 0 0 0 0 0 0 0 0 0 0 0 0 0 0 1 1 0 0 0 1
16 12 6 2 0 0 0 0 0 0 0 0 0 0 0 0 0 0 0 0 0 0 0 0 0 0 0 0 0 0 0 0 0 0 0 0 0 0 0 0 0 0 0
12 10 6 2 0 0 0 0 0 0 0 0 0 0 0 0 0 0 0 0 0 0 0 0 0 0 0 0 0 0 0 0 0 0 0 0 1 0 0 0 0 0 0
5 6 6 3 0 0 2 3 2 0 0 0 0 0 0 0 0 0 0 0 0 0 0 0 0 0 0 0 0 0 0 0 1 2 1 0 0 0 0 0 0 0 0
2 3 5 4 3 3 7 10 4 0 0 0 0 0 0 0 0 0 0 0 0 0 0 0 0 0 0 0 0 0 0 0 2 3 2 0 0 0 0 0 0 0 0
1 1 2 4 5 7 12 12 6 0 0 0 0 0 0 0 0 0 0 0 0 0 0 0 0 0 0 0 0 0 0 0 1 3 1 0 0 0 0 0 0 0 0
2 1 1 3 4 7 12 13 7 1 0 0 0 0 0 0 0 0 0 0 0 0 0 0 0 0 0 0 0 0 0 0 1 1 1 0 0 0 0 0 1 0 0
2 1 0 1 1 4 12 15 8 2 1 1 0 0 0 0 0 0 0 0 0 0 0 0 0 0 0 0 0 0 0 0 1 1 1 0 0 0 0 0 0 0 0
2 1 0 0 0 2 8 11 6 4 3 2 2 1 0 0 0 0 0 0 0 0 0 0 0 0 0 0 0 0 0 0 1 1 1 0 0 0 0 0 0 0 0
1 1 0 0 0 1 3 3 3 3 4 3 3 1 0 0 0 0 0 0 0 0 0 0 0 0 0 0 0 0 0 0 0 0 0 0 0 0 0 0 0 0 0
2 1 1 3 3 3 3 3 3 2 3 5 4 2 0 0 0 1 1 0 0 0 0 0 0 0 0 0 0 0 0 0 0 0 0 0 0 0 0 0 0 0 0
3 2 4 9 10 10 11 10 7 5 6 8 7 4 2 0 1 3 2 0 0 0 0 0 0 0 0 0 0 0 0 0 0 0 0 0 0 0 0 0 0 1 1
6 7 10 17 22 25 30 31 28 25 24 23 19 12 6 2 4 6 5 2 1 0 0 0 0 0 0 0 0 0 0 0 0 0 0 0 0 0 0 0 0 0 0
13 14 17 23 33 45 58 63 61 58 54 48 37 25 13 7 8 11 10 5 2 1 0 0 0 0 0 0 0 0 0 0 0 0 0 0 0 1 0 0 0 0 0
19 20 20 25 36 56 76 86 84 81 76 66 54 40 26 17 15 16 12 6 3 1 0 0 0 0 0 0 0 0 0 0 0 0 0 0 0 0 0 0 0 0 1
19 19 20 25 35 52 74 88 88 85 79 70 62 52 38 27 22 17 10 4 1 0 0 0 0 0 0 0 0 0 0 0 0 0 0 0 0 0 0 0 0 0 1
12 14 17 25 34 47 65 79 83 79 71 64 58 50 38 27 21 14 8 3 0 0 0 0 0 0 0 0 0 0 0 0 0 0 0 0 0 0 0 0 0 0 1
6 9 15 24 34 45 58 69 72 66 56 49 43 36 27 18 13 10 8 4 1 0 0 0 0 0 0 0 0 0 0 0 0 0 0 0 0 0 0 0 0 0 0
3 7 15 25 34 45 55 62 64 56 45 38 32 24 16 10 8 8 9 6 2 0 0 0 0 0 0 0 0 0 0 0 0 0 0 0 0 0 0 0 0 0 0
Wind_Speed
12 14 14 14 13 13 12 12 12 12 12 12 11 11 11 11 11 10 10 9 9 8 7 7 6 5 4 4 4 4 4 4 5 5 5 5 5 6 6 6 6 4 7
16 15 14 14 13 12 11 11 11 11 11 11 11 11 11 11 11 10 9 9 9 8 7 7 6 6 5 5 4 4 5 4 4 3 3 4 6 6 7 8 9 5 7
17 15 14 14 13 12 11 11 10 11 11 11 11 11 11 11 10 10 9 9 8 8 7 6 6 6 5 5 5 5 4 3 2 1 1 2 5 7 8 9 9 8 7
17 14 13 14 13 12 11 10 10 10 10 10 10 10 10 10 10 9 9 9 8 8 8 7 6 6 5 5 5 5 3 2 1 2 2 3 4 8 8 9 9 9 8
16 13 15 14 13 11 11 10 10 10 10 10 10 10 10 9 9 9 9 9 9 8 8 7 6 5 5 4 4 4 3 1 1 1 4 5 4 6 8 9 9 9 8
15 15 14 13 12 11 10 10 10 10 10 10 9 9 9 9 9 9 9 9 9 8 8 7 6 6 5 4 4 3 2 1 2 2 5 5 4 5 7 7 7 8 8
15 15 14 13 12 11 10 10 10 10 10 10 9 9 8 8 8 8 8 8 8 8 8 7 6 6 6 5 4 3 1 1 1 3 5 5 4 6 6 6 6 7 7
15 15 13 13 12 11 10 10 10 10 10 9 9 9 8 8 8 8 8 8 8 8 7 6 6 5 5 5 4 2 1 3 2 5 6 5 5 6 6 6 6 6 6
14 14 13 11 10 11 10 10 10 10 9 9 9 8 8 7 8 8 8 8 7 6 6 5 4 4 4 4 3 1 1 3 1 3 6 4 6 6 6 5 5 6 5
13 14 14 13 12 10 9 10 10 10 9 9 9 9 8 8 7 8 9 7 7 5 4 3 2 2 2 3 2 2 3 5 1 5 5 5 7 6 5 5 5 5 5
10 11 12 12 12 11 11 11 10 9 9 8 8 9 8 6 7 7 8 9 7 5 4 3 3 4 4 5 6 5 4 3 2 5 5 7 7 6 6 5 5 5 5
10 11 11 11 10 10 8 9 7 7 7 6 6 7 6 5 4 7 11 10 8 6 5 6 6 6 6 4 6 6 3 5 2 6 6 9 8 7 6 5 4 4 5
10 9 11 11 10 9 6 7 4 3 4 6 6 7 6 4 4 7 5 5 5 7 5 6 6 6 7 5 5 5 3 1 3 6 6 8 7 5 5 5 4 4 4
9 9 9 10 10 10 8 7 6 5 4 4 6 8 6 3 4 6 5 7 6 4 5 5 5 7 6 5 4 3 3 1 3 5 5 7 6 4 4 4 4 4 3
9 9 9 9 10 9 8 6 7 6 6 7 5 6 6 4 4 3 3 5 5 4 4 3 4 2 2 4 3 4 3 3 4 6 4 6 5 4 3 4 4 3 3
10 10 8 8 8 8 8 6 6 6 5 5 5 6 7 4 3 3 2 3 2 3 4 3 2 3 1 2 3 3 2 3 3 7 6 5 6 5 5 5 5 4 4
6 8 10 8 8 9 9 8 6 6 7 5 5 6 7 6 4 3 2 4 2 2 4 2 1 2 2 2 2 1 2 2 1 5 6 6 5 5 6 6 5 5 4
0 3 7 8 7 7 6 7 5 5 5 5 5 4 5 7 6 4 1 2 2 2 2 2 1 1 1 1 2 2 2 2 1 3 4 6 6 5 5 7 7 6 5
5 2 5 7 6 6 6 5 4 4 5 4 4 4 2 4 5 4 3 1 2 1 1 2 1 1 0 0 1 1 1 2 2 3 3 6 7 7 5 6 8 7 6
8 6 3 6 7 6 5 5 4 3 4 4 3 4 3 1 3 4 3 2 1 2 1 1 1 1 1 1 2 1 1 1 2 1 1 3 5 8 8 7 5 5 7
8 8 7 3 5 5 5 5 5 4 3 3 3 4 4 1 2 4 3 2 2 2 1 1 0 1 0 1 1 2 2 2 3 2 2 1 3 6 8 8 6 6 4
10 9 9 6 3 5 5 6 4 5 4 4 3 4 4 2 1 2 3 2 2 1 1 1 1 0 1 1 1 1 2 3 3 2 2 2 2 3 3 5 7 7 7
11 10 9 9 6 4 5 5 5 4 4 3 3 3 4 3 3 2 2 2 2 3 2 3 3 3 3 2 2 3 3 3 2 3 3 3 3 2 3 2 4 7 8
11 11 10 9 8 5 3 6 7 6 5 5 4 4 4 3 3 3 2 0 2 2 3 4 5 4 4 4 3 3 3 3 2 2 3 2 2 3 3 2 1 1 5
12 11 10 9 7 6 2 4 6 5 4 4 4 6 5 4 4 2 1 1 2 2 4 5 4 4 4 5 4 3 3 2 3 2 2 2 2 1 2 2 3 2 3
10 10 10 8 7 7 6 3 4 7 7 6 5 5 4 3 3 2 0 1 3 3 4 4 4 5 5 5 4 3 3 3 3 3 3 3 3 3 2 2 2 3 3
Wind_Direction
125 126 138 132 129 125 120 116 114 114 113 110 108 105 101 98 95 92 90 90 90 91 96 99 98 94 90 89 89 89 88 87 83 79 75 68 60 49 41 29 18 81 88
125 128 138 134 132 129 124 120 118 116 115 112 109 106 102 98 95 93 91 91 92 92 92 93 95 94 92 96 103 104 100 94 93 94 94 89 74 60 50 43 49 74 85
123 130 137 136 135 132 130 127 124 121 118 115 112 107 104 101 98 95 93 92 92 93 94 93 93 96 95 95 106 111 108 99 82 35 7 83 89 68 58 56 61 66 74
127 139 138 139 139 138 136 134 131 127 124 119 116 113 109 106 102 96 92 89 88 89 94 95 92 92 94 96 104 110 109 102 52 356 33 52 64 71 66 64 65 65 70
132 136 131 144 144 144 143 142 138 134 131 127 123 119 115 111 106 101 95 89 86 85 86 88 90 88 91 98 108 114 117 121 337 18 83 80 67 70 72 69 67 68 72
131 127 136 146 147 150 151 150 148 144 141 136 132 128 123 119 114 109 103 95 89 84 82 81 84 85 89 96 108 118 134 207 301 77 89 96 89 82 78 74 71 72 71
133 131 142 149 151 155 157 157 156 153 150 146 141 137 134 129 123 117 111 105 97 90 86 82 81 85 86 91 102 114 130 274 256 104 100 101 102 94 86 85 80 79 77
137 137 141 153 156 160 162 163 162 161 159 155 150 146 142 136 129 125 118 112 105 97 91 83 79 85 89 94 102 121 164 288 177 122 114 114 114 101 96 97 94 89 82
141 140 146 158 162 167 169 170 169 168 167 163 158 153 150 146 141 137 132 125 117 111 104 94 86 88 96 103 112 142 261 296 313 117 116 110 114 107 104 103 102 103 96
148 149 157 164 167 170 173 178 176 174 173 170 166 162 160 160 161 156 153 139 135 130 123 119 124 133 143 158 180 227 277 303 241 108 101 105 103 104 106 108 110 109 107
160 158 163 168 170 172 171 171 174 178 178 173 173 173 173 185 180 179 162 146 152 153 160 180 198 209 210 208 217 229 257 255 170 103 95 103 101 103 102 105 110 110 111
171 169 166 168 167 170 169 153 175 177 172 188 181 178 200 212 185 157 139 155 164 175 191 213 226 234 231 214 218 222 241 240 162 108 106 107 104 104 106 107 107 107 114
176 175 168 168 168 163 153 155 167 164 169 193 186 186 207 205 157 138 158 155 177 192 206 210 223 230 221 211 193 199 218 286 90 102 110 109 108 110 112 111 109 108 113
174 175 174 167 167 168 165 156 159 167 178 186 192 196 197 203 202 169 170 171 183 195 205 195 218 220 221 189 192 168 139 85 95 106 116 115 115 120 126 126 123 123 125
166 172 183 172 173 173 162 156 172 172 179 187 188 194 188 190 212 173 181 164 184 176 169 239 243 168 48 58 45 62 74 85 104 110 122 126 126 125 132 135 129 131 129
164 178 178 179 175 165 161 173 173 170 174 179 172 195 187 182 206 153 203 146 199 159 165 220 214 112 88 76 53 61 45 57 108 126 135 132 129 124 121 128 127 120 121
168 181 170 180 184 179 175 178 171 170 173 173 172 202 188 173 187 166 203 152 196 173 179 218 123 109 124 131 137 103 89 45 48 128 139 146 139 123 120 119 124 124 120
248 184 169 178 189 183 171 173 169 173 166 165 164 202 197 173 178 164 168 148 183 166 149 112 49 90 142 177 166 166 143 142 241 144 157 153 149 141 130 127 125 124 120
326 274 174 173 188 187 170 170 167 169 158 157 159 168 204 179 172 149 145 142 151 112 108 146 165 152 171 142 135 141 200 169 180 207 183 153 150 150 145 143 139 136 133
324 310 258 181 182 188 168 174 171 175 159 150 147 146 169 175 137 126 132 157 119 109 79 23 127 94 32 3 292 198 190 198 227 235 165 147 165 158 158 161 157 154 150
335 325 310 247 191 189 172 177 170 168 158 140 135 135 135 103 85 111 124 120 86 105 129 278 337 153 248 291 330 346 327 267 251 182 209 229 205 152 164 169 171 162 157
342 336 325 306 248 201 183 174 176 162 154 146 136 131 129 135 106 108 122 123 117 119 174 268 299 138 260 252 165 126 322 316 301 243 202 205 254 155 193 184 168 160 161
346 339 325 316 294 246 196 171 162 149 142 136 133 115 96 90 73 72 113 143 166 167 199 233 239 213 216 248 213 168 183 226 272 289 240 205 207 181 199 224 185 170 161
347 339 329 321 311 290 211 174 168 162 163 162 148 126 105 86 71 56 28 311 202 184 199 222 228 218 207 224 238 223 212 189 177 276 299 270 219 203 204 201 200 136 149
353 347 340 333 334 336 304 180 165 152 150 137 129 125 119 105 83 63 5 296 266 230 215 217 232 220 214 219 222 220 228 238 222 200 251 286 298 264 232 223 175 180 148
358 356 354 358 12 15 21 60 122 132 127 125 123 123 112 106 95 84 318 279 271 258 244 222 215 221 220 223 222 215 206 203 212 210 219 236 251 264 248 222 185 178 165